Skip Page Navigation
NASA JPL Caltech
NASA Logo - Jet Propulsion Laboratory + View the NASA Portal
+ Center for Near-Earth Object Studies
JPL Home Earth Solar System Stars & Galaxies Technology
JPL Solar System Dynamics
BODIES ORBITS EPHEMERIDES TOOLS PHYSICAL DATA DISCOVERY FAQ SITE MAP
JPL Small-Body Database Browser
Search: [ help ]  
434609 (2005 UV363)
Classification: Main-belt Asteroid          SPK-ID: 2434609
Ephemeris | Orbit Diagram | Orbital Elements | Mission Design | Physical Parameters | Discovery Circumstances ]

[ show orbit diagram ]
Orbital Elements at Epoch 2459000.5 (2020-May-31.0) TDB
Reference: JPL 17 (heliocentric ecliptic J2000)
 Element Value Uncertainty (1-sigma)   Units 
e .22261408587309 4.2339e-08  
a 2.363980675150836 1.7608e-08 au
q 1.837725278130483 1.031e-07 au
i 5.036024763066851 5.3169e-06 deg
node 195.5759678371735 5.4777e-05 deg
peri 96.8700584258581 5.8855e-05 deg
M 91.30250288657778 1.4302e-05 deg
tp 2458663.798933391012
(2019-Jun-29.29893339)
5.4527e-05 TDB
period 1327.591031428941
3.63
1.4833e-05
4.061e-08
d
yr
n .2711678457276991 3.0296e-09 deg/d
Q 2.89023607217119 2.1528e-08 au
  Orbit Determination Parameters
   # obs. used (total)      165  
   data-arc span      6609 days (18.09 yr)  
   first obs. used      2001-09-20  
   last obs. used      2019-10-25  
   planetary ephem.      DE431  
   SB-pert. ephem.      SB431-N16  
   condition code      0  
   norm. resid. RMS      .54709  
   source      ORB  
   producer      Otto Matic  
   solution date      2019-Nov-08 15:41:11  

Additional Information
 Earth MOID = .830164 au 
 Jupiter MOID = 2.32613 au 
 T_jup = 3.510 
[ hide covariance matrix ]
Orbital Elements at Epoch 2457625.5 (2016-Aug-25.0) TDB
Reference: JPL 17 (heliocentric ecliptic J2000)
 Element Value Uncertainty (1-sigma)   Units 
e .2225525221778396 4.2323e-08  
q 1.838075228029767 1.0324e-07 au
tp 2457336.816255974732
(2015-Nov-10.31625597)
6.3601e-05 TDB
node 195.5912484288966 5.4744e-05 deg
peri 97.01537818425309 5.8833e-05 deg
i 5.037158112565269 5.3185e-06 deg
  Orbit Determination Parameters
   # obs. used (total)      165  
   data-arc span      6609 days (18.09 yr)  
   first obs. used      2001-09-20  
   last obs. used      2019-10-25  
   planetary ephem.      DE431  
   SB-pert. ephem.      SB431-N16  
   condition code      0  
   norm. resid. RMS      .54709  
   source      ORB  
   producer      Otto Matic  
   solution date      2019-Nov-08 15:41:11  

Additional Information
 Jupiter MOID = 2.32613 au 
 T_jup = 3.510 
Orbit Covariance (6×6)
  e q tp node peri i
e 1.791256860232455E-15 -4.330902111670511E-15 7.109436895730949E-13 -1.439512429867542E-14 2.48634530042622E-13 -8.887002652407241E-15
q -4.330902111670511E-15 1.065816284791075E-14 -2.275721193988691E-12 3.9696403881938E-14 -7.793460183202396E-13 2.209185639656576E-14
tp 7.109436895730949E-13 -2.275721193988691E-12 4.04511712325214E-9 -3.383090873341698E-11 1.384067387065884E-9 -7.085109670517517E-12
node -1.439512429867542E-14 3.9696403881938E-14 -3.383090873341698E-11 2.996856293233317E-9 -2.996441846636215E-9 -3.755495553495919E-11
peri 2.48634530042622E-13 -7.793460183202396E-13 1.384067387065884E-9 -2.996441846636215E-9 3.461362243675426E-9 3.518760734736374E-11
i -8.887002652407241E-15 2.209185639656576E-14 -7.085109670517517E-12 -3.755495553495919E-11 3.518760734736374E-11 2.828675159247421E-11

Ephemeris | Orbit Diagram | Orbital Elements | Mission Design | Physical Parameters | Discovery Circumstances ]

Physical Parameter Table
Parameter Symbol Value Units Sigma Reference Notes
absolute magnitude H 17.7   n/a MPO434585  

434609 (2005 UV363)          Discovered 2005-Oct-27 by Spacewatch at Kitt Peak
Reference: Last Updated: 2015-06-04

Alternate Designations
 2005 UV363 = 2001 SK296 
Ephemeris | Orbit Diagram | Orbital Elements | Mission Design | Physical Parameters | Discovery Circumstances ]
ABOUT SSD CREDITS/AWARDS PRIVACY/COPYRIGHT GLOSSARY LINKS
FirstGov 2020-Jul-10 01:45 UT
(server date/time)  
NASA Home Page
Site Manager:   Ryan S. Park
Webmaster  Alan B. Chamberlin